Location: Unspecified
(38.9820°N, 94.4650°W)
Time: 04:55:22
(UTC-05:00)

CZ-3 Stage 3 - Visible Passes

Search period start: 22 March 2019 00:00
Search period end: 01 April 2019 00:00
Orbit: 471 x 34721 km, 30.5° (Epoch: 21 March)

Date Brightness Start Highest point End Pass type
(mag) Time Alt. Az. Time Alt. Az. Time Alt. Az.
24 Mar 5.6 05:11:42 26° SW 05:22:58 62° SSE 14:16:18 10° SSE visible
27 Mar 5.6 05:01:54 29° SW 05:12:30 62° SSE 14:05:12 10° SSE visible
30 Mar 5.5 04:52:03 31° SW 05:02:02 63° SSE 13:54:03 10° SSE visible
